www.pogodaiklimat.ru

Погода и климат >> Архив погоды >> Россия >> Эвенкия >> Кислокан


ПОГОДА в Кислокане

  • Прогноз погоды в Кислокане
  • Монитор погоды в Кислокане
  • Климат города

АРХИВ ПОГОДЫ в Кислокане

Время (UTC), дата Ветер
(напр.,м/с)
 
Видим.   Явления Облачность Т
(С)
Тd
(С)
f
(%)
Тe
(С)
Тes
(С)
Комфортность P
(гПа)
Po
(гПа)
Тmin
(С)
Tmax
(С)
R
(мм)
R24
(мм)
S
(см)
18 11.06 штиль 0 н/о 10/3 1000 м
[Sc Ci sp]
+7.1 +6.0 93 +6 +6 1010.6 985.1
21 11.06 штиль 0 50 км 6/0
[Ci fib]
+11.4 +8.0 80 +11 +20 1011.2 985.9
00 12.06 ЮВ 3 50 км 3/0
[Ci fib]
+20.2 +8.8 48 +22 +25 комфорт 1011.0 986.6 +6.3
03 12.06 ЮВ 3 50 км 3/0
[Ci fib]
+25.2 +6.1 29 +25 +34 комфорт 1009.9 985.9
06 12.06 ЮВ 4 50 км 5/3 1000 м
[Cu hum Ci fib]
+26.8 +4.6 24 +26 +31 жарко 1008.7 984.9
09 12.06 ЮВ 4 50 км 6/5 1000 м
[Cu hum Ci sp]
+27.2 +3.4 22 +26 +28 жарко 1007.6 983.8
12 12.06 Ю 3 50 км 3/1 1000 м
[Cu hum Ci sp]
+25.4 +4.6 26 +25 +26 комфорт 1007.8 983.8 +27.4
15 12.06 В 2 н/о 1/1 1000 м
[Sc]
+19.4 +11.4 60 +21 +21 комфорт 1009.1 984.7
18 12.06 В 1 н/о ясно +6.3 +4.4 88 +5 +5 1011.2 985.6
21 12.06 штиль 0 50 км ясно +5.5 +4.1 91 +4 +5 1012.3 986.6
00 13.06 штиль 0 50 км ясно +17.3 +8.8 57 +17 +24 1011.4 986.9 +4.0
03 13.06 ЮВ 3 50 км 1/0
[Ci fib]
+24.8 +1.7 22 +24 +33 комфорт 1010.6 986.6
06 13.06 Ю 2 50 км 3/1 1000 м
[Cu hum Ci fib]
+27.2 -0.9 16 +25 +36 комфорт 1009.6 985.8
09 13.06 Ю 2 50 км 3/1 1000 м
[Cu hum Ci fib]
+28.1 +0.4 17 +26 +32 жарко 1008.7 985.0
12 13.06 ЮЗ 1 10 км дым 10/1 1000 м
[Sc Ci sp]
+26.2 +5.4 26 +25 +27 комфорт 1008.8 984.9 +28.2
15 13.06 штиль 0 н/о 10/3 1000 м
[Sc Ac trans Ci fib]
+12.8 +7.7 71 +12 +12 1010.6 985.6
18 13.06 штиль 0 н/о 10/1 1000 м
[Sc Ac trans Ci sp]
+6.4 +5.0 91 +5 +5 1011.9 986.3
21 13.06 С 1 50 км 8/0 2000 м
[Ac trans Ci fib]
+6.0 +4.6 91 +5 +5 1013.4 987.7
00 14.06 штиль 0 50 км 3/3 1000 м
[Sc]
+16.4 +9.7 65 +16 +21 1012.7 988.0 +4.0
03 14.06 Ю 3 50 км 3/3 1000 м
[Sc]
+24.9 +5.6 29 +25 +31 комфорт 1011.8 987.7
06 14.06 ЮВ 3 50 км 3/3 1000 м
[Cu hum]
+26.5 +5.6 26 +26 +33 жарко 1010.9 987.1
09 14.06 ЮВ 3 50 км 3/3 1000 м
[Cu hum]
+26.9 +4.8 24 +26 +30 жарко 1010.5 986.7
12 14.06 Ю 3 50 км 3/1 1000 м
[Cu hum Ci fib]
+25.7 +3.8 24 +25 +26 комфорт 1011.1 987.2 +26.9
15 14.06 В 1 50 км 3/0
[Ci fib]
+16.2 +6.2 51 +17 +17 1013.2 988.4
18 14.06 ЮВ 1 н/о ясно +13.3 +6.4 63 +14 +14 1015.5 990.4
21 14.06 В 2 50 км 1/0
[Ci fib]
+13.3 +6.7 64 +13 +13 1016.6 991.5
00 15.06 ЮВ 2 50 км ясно +18.1 +7.2 49 +19 +23 1017.3 992.5 +8.4
03 15.06 Ю 3 50 км ясно +20.3 +4.4 35 +21 +30 комфорт 1016.8 992.3
06 15.06 Ю 4 50 км ясно +23.4 +3.8 28 +23 +32 комфорт 1015.1 990.9
09 15.06 ЮВ 3 50 км 3/0
[Ci fib]
+24.9 +4.0 26 +24 +30 комфорт 1013.9 989.8
12 15.06 З 1 50 км 4/0
[Ci fib]
+23.5 +8.1 37 +24 +26 комфорт 1013.5 989.3 +25.1
15 15.06 штиль 0 н/о 3/3 1000 м
[Sc]
+11.6 +8.6 82 +11 +11 1014.2 989.6
18 15.06 штиль 0 н/о 3/3 1000 м
[Sc]
+4.4 +2.9 90 +3 +3 1015.5 989.6
21 15.06 штиль 0 50 км 1/1 1000 м
[Sc]
+4.4 +3.2 92 +3 +4 1016.4 990.5
00 16.06 В 1 50 км 4/3 1000 м
[Sc Ci sp]
+16.5 +9.9 65 +17 +21 1015.7 991.0 +2.3
03 16.06 З 2 50 км 9/4 1000 м
[Cu hum Ci sp]
+25.0 +6.6 31 +25 +30 комфорт 1013.8 989.7
06 16.06 ЮЗ 2 50 км 8/5 1000 м
[Cu hum Ci fib]
+26.6 +3.2 22 +25 +31 комфорт 1012.0 988.1
09 16.06 С 1 50 км 5/3 1000 м
[Cu hum Ci fib]
+27.4 +3.8 22 +26 +32 жарко 1010.1 986.3
12 16.06 С 1 50 км 3/1 1000 м
[Sc Ci fib]
+26.8 +3.6 22 +25 +27 комфорт 1008.8 985.0 +27.4
15 16.06 штиль 0 н/о 5/3 1000 м
[Sc Ci fib]
+13.8 +7.5 66 +14 +14 1009.6 984.7
18 16.06 штиль 0 н/о 8/4 1000 м
[Sc Ci sp]
+9.1 +6.7 85 +8 +8 1009.8 984.5
21 16.06 ЮЗ 1 50 км 10/10 1000 м
[Sc]
+10.8 +8.6 86 +10 +10 1009.1 984.0
00 17.06 штиль 0 50 км 9/8 600 м
[Cb cap Ci sp]
+15.9 +11.3 74 +16 +17 1009.3 984.6 +7.7
03 17.06 В 3 50 км 6/5 1000 м
[Cu Sc Ci sp]
+23.8 +11.2 45 +25 +30 комфорт 1008.4 984.4
06 17.06 ЮВ 3 50 км гроза без осадков 6/5 600 м
[Cb cap Ci sp]
+23.3 +12.3 50 +26 +31 жарко 1008.1 984.1
09 17.06 В 1 50 км в посл. час ливневой дождь {гроза} 8/6 600 м
[Cb cap Ci sp]
+22.6 +13.1 55 +26 +29 жарко 1008.4 984.3
12 17.06 З 1 50 км {гроза, ливн. осадки} 5/1 600 м
[Cu med, cong Ac trans Ci fib]
+24.6 +11.8 45 +26 +27 жарко 1008.8 984.8 +24.9 0.0
15 17.06 штиль 0 н/о 3/0 2000 м
[Ac trans Ci sp]
+14.2 +10.8 80 +14 +14 1010.0 985.2
18 17.06 штиль 0 н/о 3/0
[Ci sp]
+7.6 +7.0 96 +7 +7 1011.7 986.9
21 17.06 штиль 0 50 км 1/1 1000 м
[Sc]
+7.4 +6.7 95 +6 +7 1012.6 987.1
00 18.06 Ю 1 50 км 3/0
[Ci fib]
+17.9 +12.9 73 +19 +24 1011.4 987.0 +5.4
03 18.06 С 3 50 км 3/3 1000 м
[Cu med, cong]
+25.4 +10.6 39 +26 +33 жарко 1010.1 986.2
06 18.06 С 3 50 км 4/4 1000 м
[Cu hum]
+27.9 +6.3 25 +27 +33 жарко 1008.8 985.1
09 18.06 С 3 50 км 3/3 1000 м
[Cu hum]
+29.0 +5.2 22 +28 +32 жарко 1007.4 983.8
12 18.06 С 3 50 км 3/1 1000 м
[Cu hum Ci fib]
+28.2 +2.9 20 +26 +28 жарко 1007.1 983.4 +29.2
15 18.06 штиль 0 н/о 3/1 1000 м
[Sc Ci sp]
+15.6 +9.9 69 +15 +15 1008.0 983.3

 

Местоположение метеостанции Кислокан (Эвенкия, Россия): широта 63.58 долгота 103.90 высота над уровнем моря 211 м.

В архиве по умолчанию представлена погода в Кислокане за последнюю неделю. Архивные данные за месяц целиком и за предыдущие месяцы, начиная с января 2011 года, Вы можете получить, выбрав интересующий диапазон дат из раскрывающегося списка и нажав кнопку "Ввод!".


*Определитесь, кто Вы:
робот инопланетянин человек

Внимание! Время в таблицах - всемирное. Для получения местного времени необходимо прибавить поправку, которая в Кислокане равна 7 ч.

Смотрите также архив погоды в соседних городах и на ближайших метеорологических станциях:

Погода в Кербо (Эвенкия, Россия) (170 км)
Погода в Туре (Эвенкия, Россия) (190 км)
Погода в Стрелке-Чуне (Эвенкия, Россия) (211 км)
Погода в Тембенчи (Эвенкия, Россия) (285 км)
Погода в Муторае (Эвенкия, Россия) (308 км)
Погода в Ербогачене (Иркутская область, Россия) (332 км)
Погода в Ванаваре (Эвенкия, Россия) (371 км)
Погода в Туой-Хае (Якутия, Россия) (386 км)
Погода в Чернышевском (Якутия, Россия) (429 км)
Погода в Хабардино (Якутия, Россия) (433 км)

Пояснения к столбцам:

Ветер - указаны скорость ветра в м/с - средняя за 10 мин, порывы в срок и между сроками (в фигурных скобках) и направление, откуда дует ветер: С - северный, СВ - северо-восточный, В - восточный, ЮВ - юго-восточный, Ю - южный, ЮЗ - юго-западный, З - западный, СЗ - северо-западный.
Видимость - горизонтальная дальность видимости в метрах или километрах. При видимости от 1 до 10 км при отсутствии осадков обычно наблюдается дымка, при ухудшении видимости до 1 км и менее - туман. В сухую погоду видимость может ухудшаться дымом, пылью или мглою.
Явления - указаны атмосферные явления, наблюдавшиеся в срок или в последний час перед сроком; фигурными скобками обозначены явления, наблюдавшиеся между сроками (за 1-3 часа до срока); квадратными скобками обозначены град или гололедные отложения с указанием их диаметра в мм.
Облачность - указаны через наклонную черту общая и нижняя облачность в баллах и высота нижней границы облаков в метрах; квадратными скобками обозначены формы облаков: Ci - перистые, Cs - перисто-слоистые, Cc - перисто-кучевые, Ac - высококучевые, As - высокослоистые, Sc - слоисто-кучевые, Ns - слоисто-дождевые, Cu - кучевые, Cb - кучево-дождевые. Подробнее классификацию облаков см. в Атласе облаков (PDF).
T - Температура воздуха - температура, измеренная на высоте 2 м над землей.
Td - Температура точки росы - температура, при понижении до которой содержащийся в воздухе водяной пар достигнет насыщения.
f - Относительная влажность воздуха - влажноcть воздуха, измеренная на высоте 2 м над землей.
Te - Эффективная температура - температура, которую ощущает одетый по сезону человек в тени. Характеристика душности погоды. При расчете учитывается влияние влажности воздуха и скорости ветра на теплоощущения человека.
Tes - Эффективная температура на солнце - температура, которую ощущает человек, с поправкой на солнечный нагрев. Характеристика знойности погоды. Зависит от высоты солнца над горизонтом, облачности и скорости ветра. Ночью, в пасмурную погоду, а также при ветре 12 м/с и более поправка равна нулю.
P - Атмосферное давление - приведенное к уровню моря атмосферное давление.
Po - Атмосферное давление - измеренное на уровне метеостанции атмосферное давление.
Tmin - Минимальная температура - минимум температуры воздуха на высоте 2 м над землей.
Tmax - Максимальная температура - максимум температуры воздуха на высоте 2 м над землей.
R - Количество осадков - Количество выпавших осадков за период времени, мм. При наведении курсора мыши на число - период времени, за который выпало указанное количество осадков.
R24 - Количество осадков - Количество выпавших осадков за 24 часа, мм.
S - Снежный покров - Высота снежного покрова, см. При наведении курсора мыши на число - состояние снежного покрова и степень покрытия местности в баллах.